Location: Bijele Vode
(45.2833°N, 16.2000°E)
Time: 00:59:42
(UTC+00:00)

Cosmos 2082 Rocket - Pass Details

Date: 18 September 2020
Orbit: 834 x 853 km, 71.0° (Epoch: 26 October)

Event Time Altitude Azimuth Distance (km) Brightness Sun altitude
Rises 18:56:59 0° 343° (NNW) 3,392 6.0 -20.8°
Reaches altitude 10° 19:00:48 10° 9° (N) 2,455 4.8 -21.4°
Maximum altitude 19:03:37 14° 39° (NE) 2,190 4.2 -21.8°
Enters shadow 19:04:29 13° 49° (NE) 2,215 4.2 -21.9°
